STAR ONE D1

Last updated on Sat Nov 15 2025 00:02:50 GMT+0000 (Coordinated Universal Time)

1 41904U 16082B 25317.29501203 -.00000212 00000+0 00000+0 0 9999 2 41904 0.0447 90.1820 0002363 158.2611 186.4477 1.00270231 32607
UTC large
Height (km)
Speed (km/s)
/
Latitude / Longitude
Inclination (degrees)
Orbital Period (minutes)
Azimuth
Elevation
Range (km)
Doppler Factor

Next 0 passes for location: London (51.5072 / 0.1276)

Sorry there are no passes over London.